This is the latest recevied weather packets stored in our database for station/object ON7XX-13. If no packets are shown the sender has not sent any weather packets the latest 10 day(s).
| Time | Temp. | Humidity | Pressure | Rain* | Wind** | Luminosity | Snow |
|---|---|---|---|---|---|---|---|
| 1777396421 | 22.78° C | 32% | 1019.4 hPa | - | - | - | - |
| 1777395806 | 23.33° C | 32% | 1019.4 hPa | - | - | - | - |
| 1777395192 | 23.33° C | 32% | 1019.4 hPa | - | - | - | - |
| 1777394578 | 23.89° C | 33% | 1019.4 hPa | - | - | - | - |
| 1777393963 | 23.89° C | 32% | 1019.3 hPa | - | - | - | - |
| 1777393349 | 23.89° C | 32% | 1019.3 hPa | - | - | - | - |
| 1777392735 | 23.89° C | 33% | 1019.4 hPa | - | - | - | - |
| 1777392120 | 24.44° C | 32% | 1019.5 hPa | - | - | - | - |
| 1777391506 | 24.44° C | 32% | 1019.5 hPa | - | - | - | - |
| 1777390892 | 24.44° C | 34% | 1019.5 hPa | - | - | - | - |
| 1777390278 | 24.44° C | 34% | 1019.6 hPa | - | - | - | - |
| 1777389663 | 24.44° C | 34% | 1019.7 hPa | - | - | - | - |
| 1777389049 | 24.44° C | 34% | 1019.6 hPa | - | - | - | - |
| 1777388435 | 24.44° C | 35% | 1019.7 hPa | - | - | - | - |
| 1777387820 | 24.44° C | 35% | 1019.8 hPa | - | - | - | - |
| 1777387206 | 24.44° C | 37% | 1020 hPa | - | - | - | - |
| 1777386592 | 24.44° C | 36% | 1020.1 hPa | - | - | - | - |
| 1777385978 | 24.44° C | 37% | 1020.1 hPa | - | - | - | - |
| 1777385363 | 24.44° C | 37% | 1020.2 hPa | - | - | - | - |
| 1777384749 | 24.44° C | 37% | 1020.3 hPa | - | - | - | - |
| 1777384135 | 24.44° C | 37% | 1020.5 hPa | - | - | - | - |
| 1777383521 | 23.89° C | 37% | 1020.5 hPa | - | - | - | - |
| 1777382906 | 23.89° C | 37% | 1020.6 hPa | - | - | - | - |
| 1777382292 | 23.89° C | 37% | 1020.6 hPa | - | - | - | - |
| 1777381678 | 23.33° C | 38% | 1020.8 hPa | - | - | - | - |
* Rain since midnight (hover to see other rain measurements)
** Current wind speed in m/s (hover to see current wind gust speed)